ROS Resources: Documentation | Support | Discussion Forum | Service Status | Q&A answers.ros.org

Packaging and Release Management   Kinetic


Topic Replies Activity
About the Kinetic category 1 July 8, 2016
Preparing for Kinetic Sync 2019-12-11 2 December 13, 2019
Preparing for Kinetic Sync 2019-11-12 3 November 16, 2019
Baxter release permissions 4 October 28, 2019
Preparing for Kinetic Sync 2019-10-25 1 October 25, 2019
Preparing for Kinetic Sync 2019-10-09 2 October 11, 2019
Preparing for Kinetic Sync 2019-09-25 2 September 28, 2019
Preparing for Kinetic Sync 2019-09-11 2 September 13, 2019
Preparing for Kinetic Sync 2019-08-21 2 August 26, 2019
Rosauth maintenance 10 August 23, 2019
Preparing for Kinetic Sync 2019-08-06 6 August 9, 2019
Preparing for Kinetic Sync 2019-07-22 8 July 30, 2019
Preparing Kinetic Sync 2019-07-08 5 July 11, 2019
Preparing for Kinetic Sync 2019-06-24 1 June 24, 2019
Preparing for Kinetic Sync 2019-06-11 7 June 16, 2019
Preparing for Kinetic Sync 2019-05-08 2 May 10, 2019
Preparing for Kinetic Sync 2019-04-23 2 April 29, 2019
Preparing for Kinetic Sync 2019-04-03 2 April 5, 2019
Pr2_calibration release permissions 4 April 3, 2019
Pr2_navigation maintainer transition 4 April 3, 2019
Preparing for Kinetic Sync 2019-03-19 2 March 25, 2019
pr2_self_test maintainer transition 5 March 16, 2019
pr2_ethercat_drivers compile issues pull request 3 March 13, 2019
Preparing for Kinetic Sync 2019-03-01 2 March 4, 2019
Preparing for Kinetic Sync 2019-02-15 3 February 22, 2019
Preparing for Kinetic Sync 2019-01-31 2 February 4, 2019
Preparing for Kinetic Sync 2019-01-17 3 January 23, 2019
Preparing for Kinetic Sync 2019-01-03 2 January 7, 2019
Preparing for Kinetic Sync 2018-12-10 2 December 12, 2018
Preparing for Kinetic Sync 2018-11-21 2 November 28, 2018